Previsão horária em Ablovo

Hoje, 26 Janeiro, Terça-feira

Tempo Temperatura Precipitação Vento Pressão Humidade
00:00 -3°C° 0 mm 4 m/s 750 mmHg 94%
01:00 -3°C° 0 mm 4 m/s 750 mmHg 94%
02:00 -4°C° 0 mm 5 m/s 750 mmHg 94%
03:00 -4°C° 0 mm 5 m/s 749 mmHg 94%
04:00 -2°C° 0 mm 5 m/s 749 mmHg 94%
05:00 -2°C° 0 mm 5 m/s 749 mmHg 94%
06:00 -2°C° 0 mm 5 m/s 749 mmHg 94%
07:00 -3°C° 0 mm 6 m/s 748 mmHg 93%
08:00 -3°C° 0 mm 6 m/s 748 mmHg 93%
09:00 -3°C° 0 mm 7 m/s 748 mmHg 92%
10:00 -2°C° 0 mm 7 m/s 748 mmHg 92%
11:00 -2°C° 0 mm 7 m/s 747 mmHg 93%
12:00 -2°C° 0 mm 7 m/s 747 mmHg 93%
13:00 -2°C° 0.1 mm 7 m/s 747 mmHg 94%
14:00 -2°C° 0.1 mm 7 m/s 746 mmHg 95%
15:00 -2°C° 0.1 mm 7 m/s 746 mmHg 95%
16:00 -2°C° 0.1 mm 7 m/s 746 mmHg 96%
17:00 -2°C° 0.1 mm 7 m/s 746 mmHg 97%
18:00 -2°C° 0.1 mm 7 m/s 746 mmHg 97%
19:00 -2°C° 0 mm 6 m/s 746 mmHg 94%
20:00 -2°C° 0 mm 6 m/s 746 mmHg 91%
21:00 -2°C° 0 mm 6 m/s 746 mmHg 88%
22:00 -2°C° 0.1 mm 6 m/s 746 mmHg 91%
23:00 -3°C° 0.1 mm 6 m/s 746 mmHg 94%

Amanhã, 27 Janeiro, Quarta-feira

Tempo Temperatura Precipitação Vento Pressão Humidade
00:00 -3°C° 0.1 mm 7 m/s 747 mmHg 97%
01:00 -3°C° 0.7 mm 7 m/s 746 mmHg 97%
02:00 -3°C° 0.7 mm 7 m/s 746 mmHg 97%
03:00 -3°C° 0.7 mm 7 m/s 746 mmHg 97%
04:00 -2°C° 0.9 mm 6 m/s 745 mmHg 98%
05:00 -2°C° 0.9 mm 6 m/s 745 mmHg 98%
06:00 -2°C° 0.9 mm 6 m/s 745 mmHg 98%
07:00 -1°C° 0.5 mm 6 m/s 745 mmHg 98%
08:00 -1°C° 0.5 mm 6 m/s 745 mmHg 98%
09:00 -1°C° 0.5 mm 6 m/s 745 mmHg 97%
10:00 -1°C° 0 mm 6 m/s 745 mmHg 96%
11:00 0°C° 0 mm 5 m/s 745 mmHg 94%
12:00 0°C° 0 mm 5 m/s 746 mmHg 92%
13:00 0°C° 0 mm 5 m/s 745 mmHg 93%
14:00 0°C° 0 mm 4 m/s 745 mmHg 93%
15:00 0°C° 0 mm 3 m/s 745 mmHg 93%
16:00 0°C° 0.1 mm 3 m/s 745 mmHg 94%
17:00 0°C° 0.1 mm 3 m/s 745 mmHg 94%
18:00 +1°C° 0.1 mm 2 m/s 745 mmHg 95%
19:00 -1°C° 0.1 mm 2 m/s 745 mmHg 96%
20:00 -1°C° 0.1 mm 2 m/s 746 mmHg 96%
21:00 -1°C° 0.1 mm 2 m/s 746 mmHg 97%
22:00 +1°C° 0.1 mm 1 m/s 746 mmHg 97%
23:00 +1°C° 0.1 mm 1 m/s 746 mmHg 96%

Depois de amanhã, 28 Janeiro, Quinta-feira

Tempo Temperatura Precipitação Vento Pressão Humidade
00:00 +1°C° 0.1 mm 1 m/s 746 mmHg 96%
01:00 +1°C° 0.1 mm 1 m/s 746 mmHg 96%
02:00 +1°C° 0.1 mm 1 m/s 746 mmHg 96%
03:00 +1°C° 0.1 mm 1 m/s 746 mmHg 96%
04:00 -1°C° 0 mm 2 m/s 746 mmHg 96%
05:00 -1°C° 0 mm 2 m/s 746 mmHg 97%
06:00 -1°C° 0 mm 2 m/s 746 mmHg 98%
07:00 0°C° 0.2 mm 3 m/s 746 mmHg 98%
08:00 0°C° 0.2 mm 3 m/s 746 mmHg 97%
09:00 -1°C° 0.2 mm 4 m/s 746 mmHg 97%
10:00 -1°C° 0.2 mm 4 m/s 746 mmHg 97%
11:00 -1°C° 0.2 mm 4 m/s 746 mmHg 96%
12:00 -2°C° 0.2 mm 4 m/s 746 mmHg 96%
13:00 -2°C° 0.2 mm 4 m/s 746 mmHg 95%
14:00 -2°C° 0.2 mm 4 m/s 745 mmHg 94%
15:00 -2°C° 0.2 mm 4 m/s 745 mmHg 94%
16:00 -2°C° 0.2 mm 4 m/s 745 mmHg 94%
17:00 -2°C° 0.2 mm 4 m/s 745 mmHg 93%
18:00 -3°C° 0.2 mm 4 m/s 745 mmHg 93%
19:00 -3°C° 0 mm 4 m/s 745 mmHg 93%
20:00 -3°C° 0 mm 4 m/s 745 mmHg 93%
21:00 -3°C° 0 mm 4 m/s 745 mmHg 93%
22:00 -3°C° 0 mm 4 m/s 745 mmHg 93%
23:00 -3°C° 0 mm 4 m/s 745 mmHg 93%

29 Janeiro, Sexta-feira

Tempo Temperatura Precipitação Vento Pressão Humidade
00:00 -3°C° 0 mm 4 m/s 745 mmHg 93%
01:00 -2°C° 0 mm 3 m/s 744 mmHg 94%
02:00 -2°C° 0 mm 3 m/s 744 mmHg 94%
03:00 -2°C° 0 mm 3 m/s 744 mmHg 94%
04:00 -2°C° 0 mm 3 m/s 743 mmHg 94%
05:00 -2°C° 0 mm 3 m/s 742 mmHg 94%
06:00 -3°C° 0 mm 4 m/s 742 mmHg 94%
07:00 -3°C° 0.9 mm 4 m/s 741 mmHg 95%
08:00 -3°C° 0.9 mm 4 m/s 741 mmHg 96%
09:00 -3°C° 0.9 mm 4 m/s 740 mmHg 96%
10:00 -3°C° 1.2 mm 4 m/s 740 mmHg 96%
11:00 -4°C° 1.2 mm 4 m/s 739 mmHg 95%
12:00 -5°C° 1.2 mm 5 m/s 739 mmHg 95%
13:00 -5°C° 0.9 mm 5 m/s 738 mmHg 95%
14:00 -5°C° 0.9 mm 5 m/s 738 mmHg 95%
15:00 -4°C° 0.9 mm 4 m/s 737 mmHg 96%
16:00 -4°C° 0.4 mm 4 m/s 737 mmHg 95%
17:00 -4°C° 0.4 mm 4 m/s 737 mmHg 95%
18:00 -4°C° 0.4 mm 4 m/s 736 mmHg 94%
19:00 -4°C° 0 mm 4 m/s 736 mmHg 94%
20:00 -4°C° 0 mm 3 m/s 736 mmHg 94%
21:00 -4°C° 0 mm 3 m/s 736 mmHg 94%
22:00 -4°C° 0 mm 4 m/s 735 mmHg 94%
23:00 -5°C° 0 mm 4 m/s 735 mmHg 95%

30 Janeiro, Sábado

Tempo Temperatura Precipitação Vento Pressão Humidade
00:00 -5°C° 0 mm 4 m/s 735 mmHg 95%
01:00 -5°C° 0.2 mm 4 m/s 735 mmHg 94%
02:00 -5°C° 0.2 mm 4 m/s 735 mmHg 94%
03:00 -5°C° 0.2 mm 4 m/s 735 mmHg 93%
04:00 -6°C° 0 mm 3 m/s 734 mmHg 94%
05:00 -7°C° 0 mm 3 m/s 734 mmHg 95%
06:00 -7°C° 0 mm 2 m/s 733 mmHg 95%
07:00 -7°C° 0.8 mm 2 m/s 733 mmHg 95%
08:00 -6°C° 0.8 mm 2 m/s 732 mmHg 96%
09:00 -4°C° 0.8 mm 1 m/s 732 mmHg 96%
10:00 -5°C° 0.9 mm 2 m/s 732 mmHg 95%
11:00 -6°C° 0.9 mm 3 m/s 732 mmHg 94%
12:00 -7°C° 0.9 mm 5 m/s 732 mmHg 93%
13:00 -7°C° 0.1 mm 5 m/s 733 mmHg 92%
14:00 -7°C° 0.1 mm 5 m/s 733 mmHg 90%
15:00 -7°C° 0.1 mm 5 m/s 734 mmHg 89%
16:00 -7°C° 0 mm 5 m/s 734 mmHg 89%
17:00 -7°C° 0 mm 5 m/s 735 mmHg 90%
18:00 -8°C° 0 mm 6 m/s 736 mmHg 90%
19:00 -7°C° 0 mm 5 m/s 736 mmHg 90%
20:00 -7°C° 0 mm 5 m/s 737 mmHg 89%
21:00 -8°C° 0 mm 5 m/s 737 mmHg 89%
22:00 -8°C° 0 mm 5 m/s 737 mmHg 90%
23:00 -10°C° 0 mm 5 m/s 738 mmHg 91%

31 Janeiro, Domingo

Tempo Temperatura Precipitação Vento Pressão Humidade
00:00 -9°C° 0 mm 4 m/s 738 mmHg 92%
01:00 -10°C° 0 mm 4 m/s 738 mmHg 92%
02:00 -10°C° 0 mm 4 m/s 739 mmHg 92%
03:00 -10°C° 0 mm 4 m/s 739 mmHg 93%
04:00 -9°C° 0 mm 3 m/s 739 mmHg 93%
05:00 -9°C° 0 mm 3 m/s 739 mmHg 94%
06:00 -9°C° 0 mm 3 m/s 739 mmHg 95%
07:00 -9°C° 0 mm 3 m/s 739 mmHg 95%
08:00 -8°C° 0 mm 2 m/s 739 mmHg 95%
09:00 -8°C° 0 mm 2 m/s 739 mmHg 95%
10:00 -8°C° 0 mm 3 m/s 739 mmHg 93%
11:00 -8°C° 0 mm 3 m/s 739 mmHg 92%
12:00 -7°C° 0 mm 3 m/s 739 mmHg 90%
13:00 -7°C° 0 mm 3 m/s 739 mmHg 90%
14:00 -7°C° 0 mm 3 m/s 739 mmHg 90%
15:00 -7°C° 0 mm 3 m/s 740 mmHg 90%
16:00 -8°C° 0 mm 4 m/s 740 mmHg 90%
17:00 -8°C° 0 mm 4 m/s 740 mmHg 91%
18:00 -9°C° 0 mm 4 m/s 741 mmHg 92%
19:00 -9°C° 0 mm 4 m/s 741 mmHg 91%
20:00 -8°C° 0 mm 4 m/s 741 mmHg 91%
21:00 -8°C° 0 mm 5 m/s 741 mmHg 90%
22:00 -8°C° 0.1 mm 5 m/s 742 mmHg 90%
23:00 -8°C° 0.1 mm 5 m/s 742 mmHg 91%
Mostrar mais